Regional Weather Roundup
Issued by NWS Charleston, WV

Home | Current Version | Previous Version | Graphics & Text | Print | Product List | Glossary On
Versions: 1 2 3 4 5 6 7 8 9 10 11 12 13 14 15 16 17 18 19 20 21 22 23 24 25 26 27 28 29 30 31 32 33 34 35 36 37 38 39 40 41 42 43 44 45 46 47 48 49 50
000
ASUS41 KRLX 010810
RWRRLX
West Virginia Regional Weather Roundup
National Weather Service Charleston WV
300 AM EST SUN MAR 01 2015

Note: "fair" indicates few or no clouds below 12,000 feet with no
significant weather and/or obstructions to visibility.

WVZ003-010900-
Northern Panhandle of West Virginia

CITY           SKY/WX    TMP DP  RH WIND       PRES   REMARKS
WHEELING       SNOW      20  16  84 SE5       30.46F VSB 1/2
$$

WVZ009-010900-
Northwest West Virginia

CITY           SKY/WX    TMP DP  RH WIND       PRES   REMARKS
PARKERSBURG    CLOUDY    30  11  45 CALM      30.50S
$$

WVZ006-010900-
Western West Virginia

CITY           SKY/WX    TMP DP  RH WIND       PRES   REMARKS
HUNTINGTON     CLOUDY    31  15  52 CALM      30.44F
$$

WVZ015-010900-
West Central West Virginia

CITY           SKY/WX    TMP DP  RH WIND       PRES   REMARKS
CHARLESTON     CLOUDY    31  24  75 CALM      30.43F
$$

WVZ022-031-010900-
North Central West Virginia

CITY           SKY/WX    TMP DP  RH WIND       PRES   REMARKS
CLARKSBURG     CLOUDY    28  16  60 NE7       30.44F
MORGANTOWN     CLOUDY    28  13  53 CALM      30.46F
$$

WVZ025-035-042-045-010900-
Southern West Virginia

CITY           SKY/WX    TMP DP  RH WIND       PRES   REMARKS
BECKLEY        CLOUDY    29  16  58 VRB7      30.42F
LOGAN          CLOUDY    37  21  52 S6        30.38S
BLUEFIELD      CLOUDY    34  18  52 SE5       30.41F
LEWISBURG      CLOUDY    26  16  66 N8        30.49F
$$

WVZ047-010900-
Northern Mountains of West Virginia

CITY           SKY/WX    TMP DP  RH WIND       PRES   REMARKS
ELKINS         CLOUDY    33  18  53 SE9       30.44F
$$

WVZ052-010900-
Eastern Panhandle of West Virginia

CITY           SKY/WX    TMP DP  RH WIND       PRES   REMARKS
MARTINSBURG    CLOUDY    24   9  52 CALM      30.63F
PETERSBURG     CLOUDY    24  16  70 CALM      30.57F
$$


USA.gov is the U.S. government's official web portal to all federal, state and local government web resources and services.